Location: Carri�res
(48.9069°N, 2.1792°E)
Time: 18:55:06
(UTC+00:00)

SeaSat 1 - Pass Details

Date: 13 May 2021
Orbit: 744 x 747 km, 108.0° (Epoch: 12 June)

Event Time Altitude Azimuth Distance (km) Brightness Sun altitude
Rises 23:57:19 0° 32° (NNE) 3,202 6.7 -22.7°
Reaches altitude 10° 23:59:39 10° 37° (NE) 2,274 5.7 -22.7°
Maximum altitude 00:04:30 54° 115° (ESE) 902 2.7 -22.6°
Enters shadow 00:05:08 51° 144° (SE) 943 2.6 -22.6°
